パンスターズ彗星

C/2016 R2 ( PanSTARRS )

English version
Home page
Updated on August 15, 2020

---------------------------------------------------------------------

・ プロフィール

発見日 2016年9月7日
発見光度 19.1等
発見者 Pan-STARRS 1 telescope (Haleakala)

・ 写真集

・ 軌道要素

Epoch 2018 May 2.0 TT = JDT 2458240.5
T 2018 May  9.58403 TT                                  Rudenko
q   2.6023716            (2000.0)            P               Q
z  +0.0014010      Peri.   33.19223     -0.14726408     -0.52443182
 +/-0.0000001      Node    80.56876     +0.61562522     -0.71221423
e   0.9963541      Incl.   58.22381     +0.77415688     +0.46660707
From 4078 observations 2016 Aug. 30-2020 June 21, mean residual 0".5.

・ 星図

・ 光度変化

        m1 = 3.5 + 5 logΔ + 13.0 log r(t + 40)

---------------------------------------------------------------------

軌道要素はM.P.E.C. 2020-P19に掲載されたものです。
星図はステラナビゲータ Ver.10 (アストロアーツ) で作成したものです。
光度グラフはComet for Windowsで作成したものです。

---------------------------------------------------------------------

Copyright(C) Seiichi Yoshida (comet@aerith.net). All rights reserved.